Flag for Bermuda Weather past 2 weeks in Hamilton, Bermuda

Now
82 °F

Partly sunny.


Feels Like: 89 °F
Forecast: N/A
Wind: 13 mph from West

Location: Bermuda

Current Time: Aug 20, 2014 at 7:55:23 PM

Latest Report: Aug 20, 2014 at 6:55 PM


Visibility: N/A

Pressure: 30.09 "Hg

Humidity: 79%

Dew point: 75 °F

Location of HamiltonLocation

Historic Weather in Hamilton — Graph

°F

Hamilton temperature yesterday

Maximum temperature yesterday: 86 °F (at 3:55 PM)
Minimum temperature yesterday: 79 °F (at 12:55 AM)
Average temperature yesterday: 82 °F

Past Weeks' High & Low Weather Summary

 TemperatureHumidityPressure
High86 °F (Aug 6, 11:55 AM)100% (Aug 10, 8:55 AM)30.18 "Hg (Aug 10, 8:55 AM)
Low73 °F (Aug 10, 8:55 AM)66% (Aug 5, 5:55 PM)29.95 "Hg (Aug 7, 2:55 AM)
Average80 °F85%30.04 "Hg
* Reported Aug 5 5:55 PM — Aug 20 5:55 PM, Hamilton, Weather by CustomWeather, © 2014

Note: Actual official high and low records may vary slightly from our data, if they occured in-between our weather recording intervals... More about our weather records

Advertising

Hamilton weather history for previous 24 hours

 ConditionsComfort  
Time TempWeatherWind HumidityBarometerVisibility
5:55 PM
Aug 20
81 °FBroken clouds.15 mph84%30.09 "HgN/A
4:55 PM79 °FSprinkles. Partly sunny.20 mph94%30.09 "HgN/A
3:55 PM77 °FSprinkles. Broken clouds.17 mph100%30.09 "HgN/A
2:55 PM84 °FScattered showers. Partly sunny.23 mph79%30.09 "HgN/A
1:55 PM86 °FBroken clouds.22 mph75%30.09 "HgN/A
12:55 PM84 °FBroken clouds.21 mph79%30.09 "HgN/A
11:55 AM84 °FBroken clouds.17 mph79%30.09 "HgN/A
10:55 AM82 °FBroken clouds.20 mph84%30.09 "HgN/A
9:55 AM82 °FScattered showers. Partly sunny.15 mph84%30.07 "HgN/A
8:55 AM82 °FBroken clouds.16 mph79%30.07 "HgN/A
7:55 AM81 °FBroken clouds.15 mph84%30.07 "HgN/A
6:55 AM81 °FPartly cloudy.15 mph84%30.04 "HgN/A
5:55 AM81 °FPassing clouds.15 mph84%30.04 "HgN/A
4:55 AM81 °FPassing clouds.14 mph84%30.01 "HgN/A
3:55 AM79 °FPassing clouds.13 mph89%30.01 "HgN/A
2:55 AM79 °FPassing clouds.13 mph89%30.01 "HgN/A
1:55 AM81 °FPassing clouds.13 mph84%30.04 "HgN/A
12:55 AM81 °FPassing clouds.12 mph89%30.04 "HgN/A
11:55 PM
Aug 19
81 °FPassing clouds.8 mph89%30.04 "HgN/A
10:55 PM81 °FPassing clouds.8 mph89%30.04 "HgN/A
9:55 PM81 °FPassing clouds.10 mph84%30.04 "HgN/A
8:55 PM81 °FPartly sunny.12 mph89%30.04 "HgN/A
7:55 PM82 °FPartly sunny.14 mph84%30.04 "HgN/A
Weather by CustomWeather, © 2014

See weather overviewHow to use our weather pages